Year,Month,Day,Hour,Minute,Value (Times are PST for windspeed in km/hr)
2012,01,25,00,00,23.40
2012,01,25,00,01,18.50
2012,01,25,00,02,14.80
2012,01,25,00,03,10.50
2012,01,25,00,04,13.00
2012,01,25,00,05,17.30
2012,01,25,00,06,16.30
2012,01,25,00,07,12.10
2012,01,25,00,08,14.20
2012,01,25,00,09,17.60
2012,01,25,00,10,12.60
2012,01,25,00,11,13.20
2012,01,25,00,12,17.30
2012,01,25,00,13,14.60
2012,01,25,00,14,15.00
2012,01,25,00,15,15.00
2012,01,25,00,16,18.40
2012,01,25,00,17,14.80
2012,01,25,00,18,14.40
2012,01,25,00,19,16.20
2012,01,25,00,20,18.30
2012,01,25,00,21,16.60
2012,01,25,00,22,11.60
2012,01,25,00,23,8.00
2012,01,25,00,24,13.30
2012,01,25,00,25,20.20
2012,01,25,00,26,19.20
2012,01,25,00,27,19.10
2012,01,25,00,28,20.40
2012,01,25,00,29,14.90
2012,01,25,00,30,10.50
2012,01,25,00,31,20.60
2012,01,25,00,32,21.10
2012,01,25,00,33,21.90
2012,01,25,00,34,15.40
2012,01,25,00,35,21.10
2012,01,25,00,36,12.70
2012,01,25,00,37,12.30
2012,01,25,00,38,16.70
2012,01,25,00,39,26.30
2012,01,25,00,40,23.80
2012,01,25,00,41,24.50
2012,01,25,00,42,30.30
2012,01,25,00,43,35.90
2012,01,25,00,44,19.60
2012,01,25,00,45,28.60
2012,01,25,00,46,36.10
2012,01,25,00,47,34.30
2012,01,25,00,48,19.50
2012,01,25,00,49,27.40
2012,01,25,00,50,23.10
2012,01,25,00,51,27.80
2012,01,25,00,52,23.90
2012,01,25,00,53,30.40
2012,01,25,00,54,24.90
2012,01,25,00,55,24.00
2012,01,25,00,56,28.90
2012,01,25,00,57,29.20
2012,01,25,00,58,16.70
2012,01,25,00,59,13.40
2012,01,25,01,00,15.20
2012,01,25,01,01,10.30
2012,01,25,01,02,10.30
2012,01,25,01,03,12.70
2012,01,25,01,04,7.30
2012,01,25,01,05,8.00
2012,01,25,01,06,8.80
2012,01,25,01,07,11.30
2012,01,25,01,08,12.50
2012,01,25,01,09,6.20
2012,01,25,01,10,9.70
2012,01,25,01,11,13.10
2012,01,25,01,12,13.50
2012,01,25,01,13,6.40
2012,01,25,01,14,11.50
2012,01,25,01,15,15.30
2012,01,25,01,16,19.30
2012,01,25,01,17,15.30
2012,01,25,01,18,19.80
2012,01,25,01,19,19.30
2012,01,25,01,20,12.50
2012,01,25,01,21,10.60
2012,01,25,01,22,6.60
2012,01,25,01,23,9.10
2012,01,25,01,24,12.70
2012,01,25,01,25,7.30
2012,01,25,01,26,8.00
2012,01,25,01,27,9.00
2012,01,25,01,28,7.40
2012,01,25,01,29,4.90
2012,01,25,01,30,13.30
2012,01,25,01,31,8.70
2012,01,25,01,32,6.80
2012,01,25,01,33,8.20
2012,01,25,01,34,4.70
2012,01,25,01,35,3.10
2012,01,25,01,36,1.90
2012,01,25,01,37,1.40
2012,01,25,01,38,1.30
2012,01,25,01,39,0.40
2012,01,25,01,40,0.80
2012,01,25,01,41,4.20
2012,01,25,01,42,7.10
2012,01,25,01,43,12.00
2012,01,25,01,44,6.80
2012,01,25,01,45,8.10
2012,01,25,01,46,3.60
2012,01,25,01,47,9.30
2012,01,25,01,48,4.00
2012,01,25,01,49,11.40
2012,01,25,01,50,11.70
2012,01,25,01,51,8.50
2012,01,25,01,52,7.80
2012,01,25,01,53,9.90
2012,01,25,01,54,6.70
2012,01,25,01,55,10.80
2012,01,25,01,56,11.80
2012,01,25,01,57,10.40
2012,01,25,01,58,10.20
2012,01,25,01,59,9.30
2012,01,25,02,00,12.90
2012,01,25,02,01,8.00
2012,01,25,02,02,4.70
2012,01,25,02,03,6.30
2012,01,25,02,04,9.30
2012,01,25,02,05,12.90
2012,01,25,02,06,16.60
2012,01,25,02,07,14.60
2012,01,25,02,08,10.50
2012,01,25,02,09,11.10
2012,01,25,02,10,17.50
2012,01,25,02,11,18.70
2012,01,25,02,12,17.90
2012,01,25,02,13,14.30
2012,01,25,02,14,9.70
2012,01,25,02,15,16.10
2012,01,25,02,16,14.70
2012,01,25,02,17,11.30
2012,01,25,02,18,13.20
2012,01,25,02,19,19.20
2012,01,25,02,20,16.20
2012,01,25,02,21,12.50
2012,01,25,02,22,14.10
2012,01,25,02,23,9.20
2012,01,25,02,24,7.20
2012,01,25,02,25,10.90
2012,01,25,02,26,8.50
2012,01,25,02,27,11.30
2012,01,25,02,28,11.50
2012,01,25,02,29,10.60
2012,01,25,02,30,7.20
2012,01,25,02,31,11.40
2012,01,25,02,32,12.60
2012,01,25,02,33,12.90
2012,01,25,02,34,11.40
2012,01,25,02,35,4.50
2012,01,25,02,36,5.50
2012,01,25,02,37,11.30
2012,01,25,02,38,4.30
2012,01,25,02,39,8.60
2012,01,25,02,40,8.40
2012,01,25,02,41,4.90
2012,01,25,02,42,3.10
2012,01,25,02,43,6.60
2012,01,25,02,44,6.10
2012,01,25,02,45,3.70
2012,01,25,02,46,3.10
2012,01,25,02,47,3.90
2012,01,25,02,48,8.50
2012,01,25,02,49,12.00
2012,01,25,02,50,12.00
2012,01,25,02,51,10.00
2012,01,25,02,52,3.80
2012,01,25,02,53,4.70
2012,01,25,02,54,6.80
2012,01,25,02,55,6.00
2012,01,25,02,56,4.60
2012,01,25,02,57,2.50
2012,01,25,02,58,4.70
2012,01,25,02,59,8.70
2012,01,25,03,00,7.70
2012,01,25,03,01,2.90
2012,01,25,03,02,4.50
2012,01,25,03,03,2.80
2012,01,25,03,04,6.10
2012,01,25,03,05,3.80
2012,01,25,03,06,4.30
2012,01,25,03,07,4.30
2012,01,25,03,08,4.30
2012,01,25,03,09,5.40
2012,01,25,03,10,7.30
2012,01,25,03,11,6.40
2012,01,25,03,12,6.70
2012,01,25,03,13,4.80
2012,01,25,03,14,9.40
2012,01,25,03,15,15.30
2012,01,25,03,16,11.50
2012,01,25,03,17,15.60
2012,01,25,03,18,9.70
2012,01,25,03,19,6.20
2012,01,25,03,20,16.20
2012,01,25,03,21,6.50
2012,01,25,03,22,6.70
2012,01,25,03,23,13.70
2012,01,25,03,24,9.30
2012,01,25,03,25,13.00
2012,01,25,03,26,14.00
2012,01,25,03,27,19.50
2012,01,25,03,28,7.70
2012,01,25,03,29,7.20
2012,01,25,03,30,6.30
2012,01,25,03,31,10.00
2012,01,25,03,32,12.00
2012,01,25,03,33,12.80
2012,01,25,03,34,7.50
2012,01,25,03,35,7.00
2012,01,25,03,36,13.70
2012,01,25,03,37,11.50
2012,01,25,03,38,9.20
2012,01,25,03,39,13.10
2012,01,25,03,40,6.70
2012,01,25,03,41,3.40
2012,01,25,03,42,8.50
2012,01,25,03,43,10.90
2012,01,25,03,44,10.40
2012,01,25,03,45,15.30
2012,01,25,03,46,17.80
2012,01,25,03,47,11.20
2012,01,25,03,48,4.10
2012,01,25,03,49,6.70
2012,01,25,03,50,10.90
2012,01,25,03,51,10.10
2012,01,25,03,52,6.80
2012,01,25,03,53,18.20
2012,01,25,03,54,11.60
2012,01,25,03,55,10.70
2012,01,25,03,56,9.30
2012,01,25,03,57,6.20
2012,01,25,03,58,6.00
2012,01,25,03,59,7.20
2012,01,25,04,00,7.30
2012,01,25,04,01,1.70
2012,01,25,04,02,1.00
2012,01,25,04,03,7.90
2012,01,25,04,04,7.80
2012,01,25,04,05,5.90
2012,01,25,04,06,6.10
2012,01,25,04,07,4.80
2012,01,25,04,08,3.00
2012,01,25,04,09,3.90
2012,01,25,04,10,2.30
2012,01,25,04,11,6.50
2012,01,25,04,12,7.60
2012,01,25,04,13,12.80
2012,01,25,04,14,10.00
2012,01,25,04,15,12.40
2012,01,25,04,16,4.00
2012,01,25,04,17,7.20
2012,01,25,04,18,8.00
2012,01,25,04,19,14.60
2012,01,25,04,20,5.30
2012,01,25,04,21,4.40
2012,01,25,04,22,8.30
2012,01,25,04,23,9.70
2012,01,25,04,24,15.30
2012,01,25,04,25,10.60
2012,01,25,04,26,10.10
2012,01,25,04,27,8.40
2012,01,25,04,28,3.70
2012,01,25,04,29,2.50
2012,01,25,04,30,2.40
2012,01,25,04,31,4.20
2012,01,25,04,32,5.60
2012,01,25,04,33,5.70
2012,01,25,04,34,4.90
2012,01,25,04,35,2.40
2012,01,25,04,36,4.20
2012,01,25,04,37,4.70
2012,01,25,04,38,9.40
2012,01,25,04,39,4.30
2012,01,25,04,40,1.90
2012,01,25,04,41,1.60
2012,01,25,04,42,2.30
2012,01,25,04,43,4.40
2012,01,25,04,44,2.70
2012,01,25,04,45,2.90
2012,01,25,04,46,3.60
2012,01,25,04,47,3.10
2012,01,25,04,48,1.90
2012,01,25,04,49,3.40
2012,01,25,04,50,3.10
2012,01,25,04,51,4.40
2012,01,25,04,52,2.70
2012,01,25,04,53,4.30
2012,01,25,04,54,4.60
2012,01,25,04,55,4.90
2012,01,25,04,56,5.60
2012,01,25,04,57,6.80
2012,01,25,04,58,9.60
2012,01,25,04,59,6.00
2012,01,25,05,00,10.90
2012,01,25,05,01,6.50
2012,01,25,05,02,6.00
2012,01,25,05,03,6.90
2012,01,25,05,04,10.10
2012,01,25,05,05,9.50
2012,01,25,05,06,8.50
2012,01,25,05,07,6.70
2012,01,25,05,08,6.70
2012,01,25,05,09,4.90
2012,01,25,05,10,9.90
2012,01,25,05,11,6.30
2012,01,25,05,12,3.80
2012,01,25,05,13,4.90
2012,01,25,05,14,9.60
2012,01,25,05,15,9.10
2012,01,25,05,16,8.50
2012,01,25,05,17,4.30
2012,01,25,05,18,4.80
2012,01,25,05,19,8.30
2012,01,25,05,20,9.30
2012,01,25,05,21,6.30
2012,01,25,05,22,6.10
2012,01,25,05,23,6.00
2012,01,25,05,24,7.20
2012,01,25,05,25,4.30
2012,01,25,05,26,9.40
2012,01,25,05,27,4.20
2012,01,25,05,28,3.10
2012,01,25,05,29,6.80
2012,01,25,05,30,5.80
2012,01,25,05,31,7.00
2012,01,25,05,32,6.80
2012,01,25,05,33,3.30
2012,01,25,05,34,6.10
2012,01,25,05,35,3.60
2012,01,25,05,36,3.50
2012,01,25,05,37,6.40
2012,01,25,05,38,7.00
2012,01,25,05,39,5.40
2012,01,25,05,40,10.50
2012,01,25,05,41,7.80
2012,01,25,05,42,5.40
2012,01,25,05,43,4.40
2012,01,25,05,44,3.00
2012,01,25,05,45,2.30
2012,01,25,05,46,6.40
2012,01,25,05,47,4.00
2012,01,25,05,48,1.30
2012,01,25,05,49,1.00
2012,01,25,05,50,1.60
2012,01,25,05,51,5.30
2012,01,25,05,52,6.40
2012,01,25,05,53,4.20
2012,01,25,05,54,6.50
2012,01,25,05,55,7.50
2012,01,25,05,56,9.30
2012,01,25,05,57,8.50
2012,01,25,05,58,8.10
2012,01,25,05,59,6.90
2012,01,25,06,00,7.40
2012,01,25,06,01,7.50
2012,01,25,06,02,10.50
2012,01,25,06,03,9.60
2012,01,25,06,04,6.90
2012,01,25,06,05,6.50
2012,01,25,06,06,4.40
2012,01,25,06,07,3.40
2012,01,25,06,08,1.10
2012,01,25,06,09,3.70
2012,01,25,06,10,6.40
2012,01,25,06,11,3.00
2012,01,25,06,12,3.30
2012,01,25,06,13,2.90
2012,01,25,06,14,2.70
2012,01,25,06,15,2.30
2012,01,25,06,16,0.90
2012,01,25,06,17,4.60
2012,01,25,06,18,6.70
2012,01,25,06,19,2.60
2012,01,25,06,20,3.20
2012,01,25,06,21,3.50
2012,01,25,06,22,12.50
2012,01,25,06,23,8.00
2012,01,25,06,24,8.00
2012,01,25,06,25,9.90
2012,01,25,06,26,4.20
2012,01,25,06,27,3.50
2012,01,25,06,28,5.60
2012,01,25,06,29,7.40
2012,01,25,06,30,2.80
2012,01,25,06,31,0.70
2012,01,25,06,32,0.00
2012,01,25,06,33,0.50
2012,01,25,06,34,0.90
2012,01,25,06,35,1.30
2012,01,25,06,36,2.10
2012,01,25,06,37,1.90
2012,01,25,06,38,2.80
2012,01,25,06,39,1.40
2012,01,25,06,40,0.00
2012,01,25,06,41,1.00
2012,01,25,06,42,1.80
2012,01,25,06,43,0.40
2012,01,25,06,44,0.00
2012,01,25,06,45,0.10
2012,01,25,06,46,1.50
2012,01,25,06,47,0.00
2012,01,25,06,48,2.40
2012,01,25,06,49,1.00
2012,01,25,06,50,0.10
2012,01,25,06,51,3.50
2012,01,25,06,52,2.60
2012,01,25,06,53,2.70
2012,01,25,06,54,2.00
2012,01,25,06,55,2.00
2012,01,25,06,56,0.00
2012,01,25,06,57,0.20
2012,01,25,06,58,0.50
2012,01,25,06,59,0.10
2012,01,25,07,00,3.00
2012,01,25,07,01,2.40
2012,01,25,07,02,2.30
2012,01,25,07,03,0.70
2012,01,25,07,04,2.10
2012,01,25,07,05,1.50
2012,01,25,07,06,3.70
2012,01,25,07,07,5.00
2012,01,25,07,08,3.40
2012,01,25,07,09,3.60
2012,01,25,07,10,3.50
2012,01,25,07,11,2.70
2012,01,25,07,12,3.00
2012,01,25,07,13,2.50
2012,01,25,07,14,5.10
2012,01,25,07,15,3.00
2012,01,25,07,16,2.30
2012,01,25,07,17,2.60
2012,01,25,07,18,2.80
2012,01,25,07,19,3.00
2012,01,25,07,20,3.80
2012,01,25,07,21,1.90
2012,01,25,07,22,1.70
2012,01,25,07,23,3.70
2012,01,25,07,24,1.30
2012,01,25,07,25,2.30
2012,01,25,07,26,3.80
2012,01,25,07,27,3.80
2012,01,25,07,28,2.90
2012,01,25,07,29,4.50
2012,01,25,07,30,8.70
2012,01,25,07,31,3.90
2012,01,25,07,32,3.50
2012,01,25,07,33,3.40
2012,01,25,07,34,9.80
2012,01,25,07,35,6.10
2012,01,25,07,36,14.50
2012,01,25,07,37,10.60
2012,01,25,07,38,1.40
2012,01,25,07,39,4.40
2012,01,25,07,40,10.80
2012,01,25,07,41,4.60
2012,01,25,07,42,8.20
2012,01,25,07,43,3.50
2012,01,25,07,44,1.20
2012,01,25,07,45,3.00
2012,01,25,07,46,4.80
2012,01,25,07,47,5.60
2012,01,25,07,48,5.10
2012,01,25,07,49,3.40
2012,01,25,07,50,5.50
2012,01,25,07,51,4.30
2012,01,25,07,52,8.50
2012,01,25,07,53,6.10
2012,01,25,07,54,4.70
2012,01,25,07,55,4.70
2012,01,25,07,56,5.80
2012,01,25,07,57,3.10
2012,01,25,07,58,10.90
2012,01,25,07,59,6.80
2012,01,25,08,00,7.20
2012,01,25,08,01,5.40
2012,01,25,08,02,10.60
2012,01,25,08,03,5.60
2012,01,25,08,04,6.20
2012,01,25,08,05,12.00
2012,01,25,08,06,6.40
2012,01,25,08,07,7.60
2012,01,25,08,08,6.40
2012,01,25,08,09,8.50
2012,01,25,08,10,10.70
2012,01,25,08,11,8.70
2012,01,25,08,12,7.50
2012,01,25,08,13,8.40
2012,01,25,08,14,20.00
2012,01,25,08,15,9.40
2012,01,25,08,16,15.60
2012,01,25,08,17,10.70
2012,01,25,08,18,11.70
2012,01,25,08,19,9.50
2012,01,25,08,20,8.90
2012,01,25,08,21,5.60
2012,01,25,08,22,4.60
2012,01,25,08,23,9.80
2012,01,25,08,24,10.10
2012,01,25,08,25,8.40
2012,01,25,08,26,8.90
2012,01,25,08,27,11.70
2012,01,25,08,28,9.70
2012,01,25,08,29,10.90
2012,01,25,08,30,16.30
2012,01,25,08,31,8.40
2012,01,25,08,32,15.40
2012,01,25,08,33,14.60
2012,01,25,08,34,10.90
2012,01,25,08,35,11.60
2012,01,25,08,36,8.60
2012,01,25,08,37,5.60
2012,01,25,08,38,3.10
2012,01,25,08,39,7.60
2012,01,25,08,40,6.90
2012,01,25,08,41,4.90
2012,01,25,08,42,4.50
2012,01,25,08,43,2.50
2012,01,25,08,44,6.40
2012,01,25,08,45,6.00
2012,01,25,08,46,4.70
2012,01,25,08,47,6.40
2012,01,25,08,48,4.50
2012,01,25,08,49,1.20
2012,01,25,08,50,4.70
2012,01,25,08,51,5.50
2012,01,25,08,52,7.60
2012,01,25,08,53,5.20
2012,01,25,08,54,3.10
2012,01,25,08,55,2.60
2012,01,25,08,56,0.80
2012,01,25,08,57,4.70
2012,01,25,08,58,5.10
2012,01,25,08,59,2.60
2012,01,25,09,00,3.80
2012,01,25,09,01,4.20
2012,01,25,09,02,4.70
2012,01,25,09,03,2.70
2012,01,25,09,04,1.90
2012,01,25,09,05,0.80
2012,01,25,09,06,0.00
2012,01,25,09,07,0.30
2012,01,25,09,08,0.10
2012,01,25,09,09,3.30
2012,01,25,09,10,3.50
2012,01,25,09,11,4.80
2012,01,25,09,12,4.20
2012,01,25,09,13,2.60
2012,01,25,09,14,0.40
2012,01,25,09,15,7.50
2012,01,25,09,16,3.20
2012,01,25,09,17,2.50
2012,01,25,09,18,1.20
2012,01,25,09,19,4.70
2012,01,25,09,20,4.70
2012,01,25,09,21,4.80
2012,01,25,09,22,5.10
2012,01,25,09,23,4.20
2012,01,25,09,24,3.80
2012,01,25,09,25,4.30
2012,01,25,09,26,5.10
2012,01,25,09,27,4.90
2012,01,25,09,28,2.30
2012,01,25,09,29,3.80
2012,01,25,09,30,6.40
2012,01,25,09,31,2.40
2012,01,25,09,32,5.90
2012,01,25,09,33,4.10
2012,01,25,09,34,9.70
2012,01,25,09,35,7.60
2012,01,25,09,36,7.40
2012,01,25,09,37,8.00
2012,01,25,09,38,5.10
2012,01,25,09,39,9.50
2012,01,25,09,40,6.20
2012,01,25,09,41,3.70
2012,01,25,09,42,6.00
2012,01,25,09,43,7.40
2012,01,25,09,44,5.50
2012,01,25,09,45,5.00
2012,01,25,09,46,7.00
2012,01,25,09,47,4.10
2012,01,25,09,48,5.10
2012,01,25,09,49,6.90
2012,01,25,09,50,11.50
2012,01,25,09,51,8.20
2012,01,25,09,52,6.60
2012,01,25,09,53,8.50
2012,01,25,09,54,7.60
2012,01,25,09,55,10.00
2012,01,25,09,56,8.10
2012,01,25,09,57,8.50
2012,01,25,09,58,8.40
2012,01,25,09,59,5.50
2012,01,25,10,00,9.50
2012,01,25,10,01,10.70
2012,01,25,10,02,7.30
2012,01,25,10,03,7.20
2012,01,25,10,04,12.70
2012,01,25,10,05,13.50
2012,01,25,10,06,7.70
2012,01,25,10,07,10.50
2012,01,25,10,08,6.00
2012,01,25,10,09,8.20
2012,01,25,10,10,4.40
2012,01,25,10,11,5.40
2012,01,25,10,12,4.80
2012,01,25,10,13,6.40
2012,01,25,10,14,7.30
2012,01,25,10,15,9.50
2012,01,25,10,16,6.00
2012,01,25,10,17,7.70
2012,01,25,10,18,7.80
2012,01,25,10,19,6.30
2012,01,25,10,20,3.00
2012,01,25,10,21,3.20
2012,01,25,10,22,5.20
2012,01,25,10,23,1.70
2012,01,25,10,24,7.00
2012,01,25,10,25,7.30
2012,01,25,10,26,8.20
2012,01,25,10,27,6.80
2012,01,25,10,28,6.70
2012,01,25,10,29,4.60
2012,01,25,10,30,6.00
2012,01,25,10,31,7.10
2012,01,25,10,32,4.70
2012,01,25,10,33,3.30
2012,01,25,10,34,2.90
2012,01,25,10,35,5.00
2012,01,25,10,36,8.50
2012,01,25,10,37,13.00
2012,01,25,10,38,13.90
2012,01,25,10,39,11.70
2012,01,25,10,40,15.90
2012,01,25,10,41,13.60
2012,01,25,10,42,15.10
2012,01,25,10,43,12.60
2012,01,25,10,44,7.30
2012,01,25,10,45,10.50
2012,01,25,10,46,8.70
2012,01,25,10,47,10.00
2012,01,25,10,48,13.60
2012,01,25,10,49,7.00
2012,01,25,10,50,10.20
2012,01,25,10,51,10.80
2012,01,25,10,52,11.10
2012,01,25,10,53,13.70
2012,01,25,10,54,12.10
2012,01,25,10,55,14.70
2012,01,25,10,56,13.00
2012,01,25,10,57,10.90
2012,01,25,10,58,13.30
2012,01,25,10,59,14.80
2012,01,25,11,00,11.40
2012,01,25,11,01,11.80
2012,01,25,11,02,8.90
2012,01,25,11,03,9.00
2012,01,25,11,04,6.60
2012,01,25,11,05,15.60
2012,01,25,11,06,13.00
2012,01,25,11,07,12.00
2012,01,25,11,08,15.80
2012,01,25,11,09,21.30
2012,01,25,11,10,14.80
2012,01,25,11,11,8.50
2012,01,25,11,12,11.70
2012,01,25,11,13,15.90
2012,01,25,11,14,11.30
2012,01,25,11,15,6.70
2012,01,25,11,16,8.40
2012,01,25,11,17,9.30
2012,01,25,11,18,8.80
2012,01,25,11,19,8.20
2012,01,25,11,20,8.60
2012,01,25,11,21,8.50
2012,01,25,11,22,9.60
2012,01,25,11,23,7.30
2012,01,25,11,24,12.20
2012,01,25,11,25,13.40
2012,01,25,11,26,13.90
2012,01,25,11,27,11.80
2012,01,25,11,28,7.20
2012,01,25,11,29,11.90
2012,01,25,11,30,11.90
2012,01,25,11,31,9.80
2012,01,25,11,32,11.60
2012,01,25,11,33,6.00
2012,01,25,11,34,7.10
2012,01,25,11,35,11.30
2012,01,25,11,36,5.40
2012,01,25,11,37,6.20
2012,01,25,11,38,9.70
2012,01,25,11,39,10.10
2012,01,25,11,40,16.20
2012,01,25,11,41,17.70
2012,01,25,11,42,21.80
2012,01,25,11,43,17.50
2012,01,25,11,44,10.30
2012,01,25,11,45,6.00
2012,01,25,11,46,12.20
2012,01,25,11,47,11.80
2012,01,25,11,48,12.40
2012,01,25,11,49,7.10
2012,01,25,11,50,11.30
2012,01,25,11,51,10.00
2012,01,25,11,52,12.20
2012,01,25,11,53,14.10
2012,01,25,11,54,16.90
2012,01,25,11,55,11.90
2012,01,25,11,56,12.20
2012,01,25,11,57,9.70
2012,01,25,11,58,15.80
2012,01,25,11,59,17.50
2012,01,25,12,00,13.00
2012,01,25,12,01,14.10
2012,01,25,12,02,15.50
2012,01,25,12,03,12.00
2012,01,25,12,04,15.10
2012,01,25,12,05,10.20
2012,01,25,12,06,11.70
2012,01,25,12,07,12.20
2012,01,25,12,08,10.90
2012,01,25,12,09,14.40
2012,01,25,12,10,12.10
2012,01,25,12,11,12.90
2012,01,25,12,12,13.30
2012,01,25,12,13,9.70
2012,01,25,12,14,12.30
2012,01,25,12,15,9.20
2012,01,25,12,16,14.70
2012,01,25,12,17,10.90
2012,01,25,12,18,8.30
2012,01,25,12,19,9.30
2012,01,25,12,20,17.00
2012,01,25,12,21,16.70
2012,01,25,12,22,14.00
2012,01,25,12,23,7.10
2012,01,25,12,24,12.10
2012,01,25,12,25,9.30
2012,01,25,12,26,10.10
2012,01,25,12,27,9.90
2012,01,25,12,28,11.90
2012,01,25,12,29,11.80
2012,01,25,12,30,10.60
2012,01,25,12,31,16.90
2012,01,25,12,32,10.00
2012,01,25,12,33,12.50
2012,01,25,12,34,10.40
2012,01,25,12,35,9.80
2012,01,25,12,36,8.60
2012,01,25,12,37,10.60
2012,01,25,12,38,14.30
2012,01,25,12,39,15.90
2012,01,25,12,40,10.50
2012,01,25,12,41,11.80
2012,01,25,12,42,16.90
2012,01,25,12,43,16.60
2012,01,25,12,44,9.60
2012,01,25,12,45,12.60
2012,01,25,12,46,7.40
2012,01,25,12,47,6.40
2012,01,25,12,48,11.60
2012,01,25,12,49,9.00
2012,01,25,12,50,5.40
2012,01,25,12,51,7.20
2012,01,25,12,52,6.30
2012,01,25,12,53,5.20
2012,01,25,12,54,3.10
2012,01,25,12,55,6.40
2012,01,25,12,56,6.60
2012,01,25,12,57,8.50
2012,01,25,12,58,5.80
2012,01,25,12,59,6.60
2012,01,25,13,00,7.00
2012,01,25,13,01,6.00
2012,01,25,13,02,4.90
2012,01,25,13,03,5.60
2012,01,25,13,04,5.20
2012,01,25,13,05,4.30
2012,01,25,13,06,5.30
2012,01,25,13,07,6.80
2012,01,25,13,08,3.90
2012,01,25,13,09,5.20
2012,01,25,13,10,4.30
2012,01,25,13,11,3.80
2012,01,25,13,12,4.70
2012,01,25,13,13,5.50
2012,01,25,13,14,5.00
2012,01,25,13,15,4.80
2012,01,25,13,16,7.60
2012,01,25,13,17,7.80
2012,01,25,13,18,7.10
2012,01,25,13,19,6.00
2012,01,25,13,20,4.70
2012,01,25,13,21,2.60
2012,01,25,13,22,0.20
2012,01,25,13,23,1.50
2012,01,25,13,24,3.20
2012,01,25,13,25,4.20
2012,01,25,13,26,3.40
2012,01,25,13,27,3.10
2012,01,25,13,28,2.30
2012,01,25,13,29,3.60
2012,01,25,13,30,2.30
2012,01,25,13,31,5.10
2012,01,25,13,32,4.40
2012,01,25,13,33,4.90
2012,01,25,13,34,5.10
2012,01,25,13,35,5.20
2012,01,25,13,36,1.20
2012,01,25,13,37,1.60
2012,01,25,13,38,2.00
2012,01,25,13,39,1.70
2012,01,25,13,40,0.70
2012,01,25,13,41,0.20
2012,01,25,13,42,0.30
2012,01,25,13,43,0.60
2012,01,25,13,44,0.40
2012,01,25,13,45,0.30
2012,01,25,13,46,0.00
2012,01,25,13,47,0.60
2012,01,25,13,48,1.20
2012,01,25,13,49,2.50
2012,01,25,13,50,1.40
2012,01,25,13,51,1.00
2012,01,25,13,52,3.10
2012,01,25,13,53,5.20
2012,01,25,13,54,3.50
2012,01,25,13,55,4.10
2012,01,25,13,56,2.10
2012,01,25,13,57,0.80
2012,01,25,13,58,3.70
2012,01,25,13,59,3.10
2012,01,25,14,00,3.70
2012,01,25,14,01,0.00
2012,01,25,14,02,0.80
2012,01,25,14,03,3.90
2012,01,25,14,04,2.70
2012,01,25,14,05,0.90
2012,01,25,14,06,1.50
2012,01,25,14,07,2.90
2012,01,25,14,08,1.20
2012,01,25,14,09,2.30
2012,01,25,14,10,0.50
2012,01,25,14,11,1.40
2012,01,25,14,12,2.00
2012,01,25,14,13,1.80
2012,01,25,14,14,0.30
2012,01,25,14,15,0.10
2012,01,25,14,16,0.10
2012,01,25,14,17,2.00
2012,01,25,14,18,1.70
2012,01,25,14,19,1.40
2012,01,25,14,20,1.20
2012,01,25,14,21,2.00
2012,01,25,14,22,1.80
2012,01,25,14,23,1.60
2012,01,25,14,24,2.50
2012,01,25,14,25,1.20
2012,01,25,14,26,1.40
2012,01,25,14,27,2.10
2012,01,25,14,28,1.90
2012,01,25,14,29,2.10
2012,01,25,14,30,0.90
2012,01,25,14,31,2.50
2012,01,25,14,32,4.70
2012,01,25,14,33,4.40
2012,01,25,14,34,3.90
2012,01,25,14,35,6.20
2012,01,25,14,36,5.20
2012,01,25,14,37,6.50
2012,01,25,14,38,6.00
2012,01,25,14,39,8.00
2012,01,25,14,40,5.40
2012,01,25,14,41,4.90
2012,01,25,14,42,5.30
2012,01,25,14,43,8.00
2012,01,25,14,44,10.30
2012,01,25,14,45,8.50
2012,01,25,14,46,11.30
2012,01,25,14,47,8.60
2012,01,25,14,48,13.80
2012,01,25,14,49,12.80
2012,01,25,14,50,12.50
2012,01,25,14,51,7.90
2012,01,25,14,52,8.10
2012,01,25,14,53,10.00
2012,01,25,14,54,8.50
2012,01,25,14,55,9.80
2012,01,25,14,56,9.70
2012,01,25,14,57,8.30
2012,01,25,14,58,5.20
2012,01,25,14,59,6.40
2012,01,25,15,00,5.50
2012,01,25,15,01,1.60
2012,01,25,15,02,5.50
2012,01,25,15,03,5.10
2012,01,25,15,04,10.50
2012,01,25,15,05,11.60
2012,01,25,15,06,8.50
2012,01,25,15,07,7.50
2012,01,25,15,08,10.20
2012,01,25,15,09,8.50
2012,01,25,15,10,6.40
2012,01,25,15,11,8.00
2012,01,25,15,12,8.00
2012,01,25,15,13,9.30
2012,01,25,15,14,10.10
2012,01,25,15,15,11.00
2012,01,25,15,16,10.40
2012,01,25,15,17,7.00
2012,01,25,15,18,10.10
2012,01,25,15,19,7.90
2012,01,25,15,20,10.50
2012,01,25,15,21,10.20
2012,01,25,15,22,4.70
2012,01,25,15,23,9.20
2012,01,25,15,24,9.50
2012,01,25,15,25,9.20
2012,01,25,15,26,3.20
2012,01,25,15,27,7.30
2012,01,25,15,28,7.50
2012,01,25,15,29,10.50
2012,01,25,15,30,6.20
2012,01,25,15,31,7.20
2012,01,25,15,32,10.10
2012,01,25,15,33,8.40
2012,01,25,15,34,12.00
2012,01,25,15,35,11.30
2012,01,25,15,36,12.60
2012,01,25,15,37,8.70
2012,01,25,15,38,12.70
2012,01,25,15,39,13.70
2012,01,25,15,40,7.30
2012,01,25,15,41,9.90
2012,01,25,15,42,9.90
2012,01,25,15,43,12.50
2012,01,25,15,44,9.40
2012,01,25,15,45,5.80
2012,01,25,15,46,8.10
2012,01,25,15,47,10.40
2012,01,25,15,48,7.30
2012,01,25,15,49,10.00
2012,01,25,15,50,7.10
2012,01,25,15,51,6.00
2012,01,25,15,52,5.70
2012,01,25,15,53,5.80
2012,01,25,15,54,4.10
2012,01,25,15,55,1.80
2012,01,25,15,56,0.90
2012,01,25,15,57,0.00
2012,01,25,15,58,0.00
2012,01,25,15,59,2.60
2012,01,25,16,00,0.30
2012,01,25,16,01,0.70
2012,01,25,16,02,0.90
2012,01,25,16,03,1.10
2012,01,25,16,04,0.00
2012,01,25,16,05,4.20
2012,01,25,16,06,1.40
2012,01,25,16,07,1.40
2012,01,25,16,08,0.00
2012,01,25,16,09,3.00
2012,01,25,16,10,2.80
2012,01,25,16,11,1.60
2012,01,25,16,12,4.90
2012,01,25,16,13,4.50
2012,01,25,16,14,2.60
2012,01,25,16,15,2.00
2012,01,25,16,16,3.00
2012,01,25,16,17,3.00
2012,01,25,16,18,4.70
2012,01,25,16,19,1.80
2012,01,25,16,20,0.90
2012,01,25,16,21,4.00
2012,01,25,16,22,2.10
2012,01,25,16,23,1.30
2012,01,25,16,24,0.40
2012,01,25,16,25,0.10
2012,01,25,16,26,0.30
2012,01,25,16,27,0.40
2012,01,25,16,28,2.90
2012,01,25,16,29,1.90
2012,01,25,16,30,0.80
2012,01,25,16,31,4.70
2012,01,25,16,32,4.40
2012,01,25,16,33,2.20
2012,01,25,16,34,4.70
2012,01,25,16,35,6.80
2012,01,25,16,36,4.80
2012,01,25,16,37,6.80
2012,01,25,16,38,5.50
2012,01,25,16,39,5.70
2012,01,25,16,40,6.20
2012,01,25,16,41,4.40
2012,01,25,16,42,6.80
2012,01,25,16,43,5.90
2012,01,25,16,44,7.00
2012,01,25,16,45,7.00
2012,01,25,16,46,6.80
2012,01,25,16,47,7.20
2012,01,25,16,48,10.90
2012,01,25,16,49,9.80
2012,01,25,16,50,9.30
2012,01,25,16,51,6.80
2012,01,25,16,52,6.40
2012,01,25,16,53,6.50
2012,01,25,16,54,9.40
2012,01,25,16,55,6.50
2012,01,25,16,56,7.60
2012,01,25,16,57,8.40
2012,01,25,16,58,5.90
2012,01,25,16,59,8.60
2012,01,25,17,00,11.00
2012,01,25,17,01,8.70
2012,01,25,17,02,7.70
2012,01,25,17,03,6.90
2012,01,25,17,04,4.10
2012,01,25,17,05,6.40
2012,01,25,17,06,5.50
2012,01,25,17,07,10.50
2012,01,25,17,08,9.40
2012,01,25,17,09,10.70
2012,01,25,17,10,8.40
2012,01,25,17,11,9.70
2012,01,25,17,12,13.40
2012,01,25,17,13,15.00
2012,01,25,17,14,8.00
2012,01,25,17,15,7.10
2012,01,25,17,16,6.00
2012,01,25,17,17,13.00
2012,01,25,17,18,8.20
2012,01,25,17,19,10.60
2012,01,25,17,20,6.50
2012,01,25,17,21,8.00
2012,01,25,17,22,9.30
2012,01,25,17,23,13.20
2012,01,25,17,24,14.10
2012,01,25,17,25,12.60
2012,01,25,17,26,9.90
2012,01,25,17,27,8.10
2012,01,25,17,28,7.60
2012,01,25,17,29,12.00
2012,01,25,17,30,8.10
2012,01,25,17,31,10.00
2012,01,25,17,32,4.90
2012,01,25,17,33,7.30
2012,01,25,17,34,6.10
2012,01,25,17,35,8.10
2012,01,25,17,36,9.00
2012,01,25,17,37,6.90
2012,01,25,17,38,6.00
2012,01,25,17,39,5.60
2012,01,25,17,40,2.10
2012,01,25,17,41,4.30
2012,01,25,17,42,1.80
2012,01,25,17,43,0.80
2012,01,25,17,44,1.10
2012,01,25,17,45,5.80
2012,01,25,17,46,4.90
2012,01,25,17,47,3.20
2012,01,25,17,48,3.50
2012,01,25,17,49,3.30
2012,01,25,17,50,1.70
2012,01,25,17,51,2.20
2012,01,25,17,52,3.80